{"data":{"norad_id":59601,"epoch":"2026-05-24T21:25:48.110016Z","epoch_age_seconds":84168,"freshness":"FRESH","line1":"1 59601U 24080A   26144.89291794  .00000834  00000+0  39840-4 0  9993","line2":"2 59601  43.0021 327.8410 0000901 282.1879  77.8872 15.27577115117396","mean_motion":15.27577115,"eccentricity":9.01e-5,"inclination_deg":43.0021,"raan_deg":327.841,"arg_perigee_deg":282.1879,"mean_anomaly_deg":77.8872,"bstar":3.984e-5,"rev_number":11739,"period_min":94.266926746935,"perigee_km":482.43954113552,"apogee_km":483.67592842673,"semimajor_km":6861.1947347811,"source":"CELESTRAK","updated_at":"2026-05-25T13:38:18.989595Z"}}